Location: Bad Salzschlirf
(50.3750°N, 9.3000°E)
Time: 04:59:55
(UTC+02:00)

ISS - Pass Details

Date: 28 March 2020
Orbit: 417 x 423 km, 51.6° (Epoch: 29 March)

Event Time Altitude Azimuth Distance (km) Brightness Sun altitude
Rises 19:52:51 0° 276° (W) 2,359 1.9 -10.7°
Reaches altitude 10° 19:54:58 10° 279° (W) 1,496 0.5 -11.0°
Maximum altitude 19:58:19 69° 3° (N) 450 -3.6 -11.5°
Enters shadow 20:00:42 18° 85° (E) 1,111 -2.2 -11.9°
